Location: Baumgarten
(49.0970°N, 12.7493°E)
Time: 16:46:22
(UTC+00:00)

CZ-4B DEB - Pass Details

Date: 05 July 2020
Orbit: 436 x 443 km, 97.3° (Epoch: 13 August)

Event Time Altitude Azimuth Distance (km) Brightness Sun altitude
Exits shadow 20:28:35 11° 165° (SSE) 1,483 6.5 -9.4°
Maximum altitude 20:31:45 89° 83° (E) 453 4.4 -9.7°
Drops below altitude 10° 20:35:09 10° 347° (NNW) 1,582 8.3 -10.0°
Sets 20:37:11 0° 348° (NNW) 2,459 9.5 -10.2°
